Show Low, AZ

6:30 AM MST on September 22, 2017 (GMT -0700)
Show Low Municipal

Weather History for KSOW - April, 2013

Change the Weather History Date:

Thursday, April 25, 2013

  Actual Average Record
Temperature  
Mean Temperature 54 °F -  
Max Temperature 66 °F 62 °F 77 °F (1981)
Min Temperature 42 °F 44 °F 22 °F (1970)
Degree Days  
Heating Degree Days 11    
Growing Degree Days 4 (Base 50)    
Moisture  
Dew Point 18 °F    
Average Humidity 25    
Maximum Humidity 42    
Minimum Humidity 12    
Precipitation  
Precipitation 0.00 in - - ()
Sea Level Pressure  
Sea Level Pressure 30.09 in    
Wind  
Wind Speed 12 mph (SSW)    
Max Wind Speed 33 mph    
Max Gust Speed 44 mph    
Visibility 10 miles    
Events      
Averages and records for this station are not official NWS values.
T = Trace of Precipitation, MM = Missing Value Source: NWS Daily Summary

Daily Weather History Graph

Daily Weather History Graph

Search for Another Location

Airport or City:

Trip Planner

Search our weather history database for the weather conditions in past years. The results will help you decide how hot, cold, wet, or windy it might be!

Date:

Astronomy

Apr. 25, 2013 Rise Set
Actual Time 5:36 AM MST 6:59 PM MST
Civil Twilight 5:10 AM MST 7:26 PM MST
Nautical Twilight 4:38 AM MST 7:57 PM MST
Astronomical Twilight 4:05 AM MST 8:30 PM MST
Moon 7:15 PM MST (4/25) 5:21 AM MST (4/25)
Length of Visible Light 14h 16m
Length of Day
13h 23m
Full, 100% of the Moon is Illuminated
Apr 25
Full
Apr 25
Full
May 2
Last Quarter
May 9
New
May 17
First Quarter

Hourly Weather History & Observations

Time (MST) Temp. Windchill Dew Point Humidity Pressure Visibility Wind Dir Wind Speed Gust Speed Precip Events Conditions
12:15 AM 50.0 °F - 17.6 °F 28% 30.09 in 10.0 mi South 4.6 mph - N/A   Scattered Clouds
12:35 AM 50.0 °F - 17.6 °F 28% 30.09 in 10.0 mi South 6.9 mph - N/A   Scattered Clouds
12:55 AM 51.8 °F - 17.6 °F 26% 30.08 in 10.0 mi South 8.1 mph - N/A   Partly Cloudy
1:15 AM 51.8 °F - 17.6 °F 26% 30.08 in 10.0 mi South 9.2 mph - N/A   Clear
1:35 AM 51.8 °F - 17.6 °F 26% 30.07 in 10.0 mi South 10.4 mph - N/A   Clear
1:55 AM 50.0 °F - 19.4 °F 30% 30.07 in 10.0 mi South 11.5 mph - N/A   Clear
2:15 AM 50.0 °F - 17.6 °F 28% 30.08 in 10.0 mi South 10.4 mph - N/A   Partly Cloudy
2:35 AM 50.0 °F - 17.6 °F 28% 30.08 in 10.0 mi South 8.1 mph - N/A   Partly Cloudy
2:55 AM 50.0 °F - 17.6 °F 28% 30.08 in 10.0 mi South 9.2 mph - N/A   Clear
3:15 AM 50.0 °F - 19.4 °F 30% 30.08 in 10.0 mi South 11.5 mph - N/A   Clear
3:35 AM 50.0 °F - 19.4 °F 30% 30.07 in 10.0 mi South 10.4 mph - N/A   Scattered Clouds
3:55 AM 48.2 °F - 19.4 °F 32% 30.08 in 10.0 mi South 10.4 mph - N/A   Partly Cloudy
4:15 AM 48.2 °F - 19.4 °F 32% 30.09 in 10.0 mi South 10.4 mph - N/A   Clear
4:35 AM 48.2 °F - 19.4 °F 32% 30.08 in 10.0 mi SSE 9.2 mph - N/A   Clear
4:55 AM 48.2 °F - 19.4 °F 32% 30.07 in 10.0 mi SSE 10.4 mph - N/A   Clear
5:15 AM 48.2 °F - 19.4 °F 32% 30.07 in 10.0 mi SW 8.1 mph - N/A   Clear
5:35 AM 48.2 °F - 19.4 °F 32% 30.08 in 10.0 mi South 9.2 mph - N/A   Clear
5:55 AM 48.2 °F - 19.4 °F 32% 30.09 in 10.0 mi South 9.2 mph - N/A   Clear
6:15 AM 48.2 °F - 21.2 °F 34% 30.10 in 10.0 mi South 8.1 mph - N/A   Clear
6:35 AM 50.0 °F - 21.2 °F 32% 30.10 in 10.0 mi South 8.1 mph - N/A   Clear
6:55 AM 50.0 °F - 23.0 °F 35% 30.11 in 10.0 mi South 8.1 mph - N/A   Clear
7:15 AM 51.8 °F - 23.0 °F 33% 30.12 in 10.0 mi South 8.1 mph - N/A   Clear
7:35 AM 55.4 °F - 23.0 °F 29% 30.11 in 10.0 mi South 9.2 mph - N/A   Clear
7:55 AM 57.2 °F - 23.0 °F 27% 30.11 in 10.0 mi South 10.4 mph - N/A   Clear
8:15 AM 57.2 °F - 23.0 °F 27% 30.10 in 10.0 mi South 9.2 mph - N/A   Clear
8:35 AM 59.0 °F - 23.0 °F 25% 30.10 in 10.0 mi SSW 13.8 mph 18.4 mph N/A   Clear
8:55 AM 59.0 °F - 23.0 °F 25% 30.10 in 10.0 mi South 13.8 mph - N/A   Clear
9:15 AM 60.8 °F - 23.0 °F 23% 30.09 in 10.0 mi South 12.7 mph 21.9 mph N/A   Clear
9:35 AM 60.8 °F - 23.0 °F 23% 30.09 in 10.0 mi SSW 12.7 mph 24.2 mph N/A   Clear
9:55 AM 62.6 °F - 23.0 °F 22% 30.09 in 10.0 mi SSW 10.4 mph 19.6 mph N/A   Clear
10:15 AM 62.6 °F - 19.4 °F 19% 30.08 in 10.0 mi South 18.4 mph 27.6 mph N/A   Clear
10:35 AM 64.4 °F - 17.6 °F 16% 30.07 in 10.0 mi South 13.8 mph 27.6 mph N/A   Clear
10:55 AM 64.4 °F - 17.6 °F 16% 30.05 in 10.0 mi South 18.4 mph 27.6 mph N/A   Clear
11:15 AM 64.4 °F - 15.8 °F 15% 30.05 in 10.0 mi South 27.6 mph 34.5 mph N/A   Clear
11:35 AM 66.2 °F - 15.8 °F 14% 30.04 in 10.0 mi SW 27.6 mph 38.0 mph N/A   Partly Cloudy
11:55 AM 66.2 °F - 15.8 °F 14% 30.04 in 10.0 mi SSW 24.2 mph 35.7 mph N/A   Partly Cloudy
12:15 PM 66.2 °F - 14.0 °F 13% 30.03 in 10.0 mi SW 25.3 mph 39.1 mph N/A   Partly Cloudy
12:35 PM 64.4 °F - 15.8 °F 15% 30.03 in 10.0 mi SSW 23.0 mph 39.1 mph N/A   Partly Cloudy
12:55 PM 64.4 °F - 17.6 °F 16% 30.02 in 10.0 mi South 29.9 mph 40.3 mph N/A   Scattered Clouds
1:15 PM 64.4 °F - 15.8 °F 15% 30.02 in 10.0 mi SSW 17.3 mph 38.0 mph N/A   Scattered Clouds
1:35 PM 64.4 °F - 15.8 °F 15% 30.01 in 10.0 mi SW 33.4 mph 39.1 mph N/A   Scattered Clouds
1:55 PM 66.2 °F - 15.8 °F 14% 30.01 in 10.0 mi SW 27.6 mph 40.3 mph N/A   Scattered Clouds
2:15 PM 62.6 °F - 19.4 °F 19% 30.02 in 10.0 mi SW 21.9 mph 27.6 mph N/A   Mostly Cloudy
2:35 PM 64.4 °F - 21.2 °F 19% 30.02 in 10.0 mi WSW 20.7 mph 38.0 mph N/A   Partly Cloudy
2:55 PM 62.6 °F - 19.4 °F 19% 30.01 in 10.0 mi SW 25.3 mph 35.7 mph N/A   Partly Cloudy
3:15 PM 62.6 °F - 17.6 °F 18% 30.01 in 10.0 mi SW 31.1 mph 43.7 mph N/A   Partly Cloudy
3:35 PM 62.6 °F - 15.8 °F 16% 30.02 in 10.0 mi SW 31.1 mph 41.4 mph N/A   Partly Cloudy
3:55 PM 60.8 °F - 15.8 °F 17% 30.03 in 10.0 mi SW 31.1 mph 36.8 mph N/A   Clear
4:15 PM 60.8 °F - 14.0 °F 16% 30.04 in 10.0 mi WSW 24.2 mph 36.8 mph N/A   Scattered Clouds
4:35 PM 59.0 °F - 5.0 °F 12% 30.05 in 10.0 mi SSW 20.7 mph 36.8 mph N/A   Partly Cloudy
4:55 PM 59.0 °F - 10.4 °F 15% 30.06 in 10.0 mi SW 24.2 mph 29.9 mph N/A   Clear
5:15 PM 57.2 °F - 8.6 °F 14% 30.07 in 10.0 mi West 21.9 mph 28.8 mph N/A   Clear
5:35 PM 57.2 °F - 6.8 °F 13% 30.08 in 10.0 mi WSW 23.0 mph 29.9 mph N/A   Clear
5:55 PM 55.4 °F - 8.6 °F 15% 30.08 in 10.0 mi WSW 18.4 mph 25.3 mph N/A   Clear
6:15 PM 53.6 °F - 10.4 °F 18% 30.09 in 10.0 mi WSW 17.3 mph - N/A   Clear
6:35 PM 53.6 °F - 12.2 °F 19% 30.09 in 10.0 mi WSW 13.8 mph - N/A   Clear
6:55 PM 53.6 °F - 14.0 °F 21% 30.10 in 10.0 mi SW 13.8 mph - N/A   Clear
7:15 PM 50.0 °F - 14.0 °F 24% 30.10 in 10.0 mi SW 12.7 mph - N/A   Clear
7:35 PM 50.0 °F - 15.8 °F 26% 30.12 in 10.0 mi SW 9.2 mph - N/A   Clear
7:55 PM 48.2 °F - 17.6 °F 30% 30.12 in 10.0 mi SSW 8.1 mph - N/A   Clear
8:15 PM 46.4 °F 41.9 °F 15.8 °F 29% 30.14 in 10.0 mi SSW 9.2 mph - N/A   Clear
8:35 PM 46.4 °F 42.9 °F 17.6 °F 32% 30.14 in 10.0 mi SSW 6.9 mph - N/A   Clear
8:55 PM 44.6 °F 40.7 °F 15.8 °F 31% 30.16 in 10.0 mi South 6.9 mph - N/A   Clear
9:15 PM 44.6 °F 39.7 °F 17.6 °F 34% 30.16 in 10.0 mi South 9.2 mph - N/A   Clear
9:35 PM 44.6 °F 39.2 °F 19.4 °F 37% 30.17 in 10.0 mi South 10.4 mph - N/A   Clear
9:55 PM 44.6 °F 40.2 °F 21.2 °F 39% 30.17 in 10.0 mi South 8.1 mph - N/A   Clear
10:15 PM 42.8 °F 37.0 °F 21.2 °F 42% 30.17 in 10.0 mi South 10.4 mph - N/A   Clear
10:35 PM 42.8 °F 37.0 °F 21.2 °F 42% 30.17 in 10.0 mi South 10.4 mph - N/A   Clear
10:55 PM 42.8 °F 37.0 °F 21.2 °F 42% 30.17 in 10.0 mi South 10.4 mph - N/A   Clear
11:15 PM 42.8 °F 36.6 °F 19.4 °F 39% 30.18 in 10.0 mi South 11.5 mph - N/A   Clear
11:35 PM 42.8 °F 37.0 °F 21.2 °F 42% 30.18 in 10.0 mi South 10.4 mph - N/A   Clear
11:55 PM 44.6 °F 38.4 °F 21.2 °F 39% 30.18 in 10.0 mi South 12.7 mph - N/A   Clear